This is the latest recevied weather packets stored in our database for station/object KE0PRS. If no packets are shown the sender has not sent any weather packets the latest 10 day(s).
| Time | Temp. | Humidity | Pressure | Rain* | Wind** | Luminosity | Snow |
|---|---|---|---|---|---|---|---|
| 1787507898 | 28.89° C | 53% | 1019.6 hPa | 0 mm | - | 471 W/m² | - |
| 1787507594 | 28.89° C | 54% | 1019.4 hPa | 0 mm | - | 435 W/m² | - |
| 1787507290 | 28.89° C | 54% | 1019.5 hPa | 0 mm | - | 362 W/m² | - |
| 1787506985 | 28.33° C | 55% | 1019.2 hPa | 0 mm | - | 398 W/m² | - |
| 1787506681 | 28.33° C | 54% | 1019.2 hPa | 0 mm | - | 432 W/m² | - |
| 1787506377 | 28.33° C | 56% | 1019 hPa | 0 mm | - | 416 W/m² | - |
| 1787506072 | 28.33° C | 55% | 1019.1 hPa | 0 mm | - | 451 W/m² | - |
| 1787505768 | 28.33° C | 55% | 1019.2 hPa | 0 mm | - | 462 W/m² | - |
| 1787505463 | 27.78° C | 57% | 1019 hPa | 0 mm | - | 525 W/m² | - |
| 1787505158 | 27.78° C | 59% | 1019.1 hPa | 0 mm | - | 417 W/m² | - |
| 1787504857 | 27.78° C | 58% | 1019.1 hPa | 0 mm | - | 387 W/m² | - |
| 1787504554 | 27.22° C | 58% | 1019.1 hPa | 0 mm | - | 399 W/m² | - |
| 1787504249 | 27.22° C | 59% | 1019.1 hPa | 0 mm | - | 513 W/m² | - |
| 1787503946 | 26.67° C | 60% | 1019.1 hPa | 0 mm | - | 559 W/m² | - |
| 1787503646 | 26.11° C | 62% | 1019 hPa | 0 mm | - | 541 W/m² | - |
| 1787503343 | 26.11° C | 64% | 1018.9 hPa | 0 mm | - | 478 W/m² | - |
| 1787503043 | 25.56° C | 64% | 1019.2 hPa | 0 mm | - | 338 W/m² | - |
| 1787502739 | 25.56° C | 65% | 1019.4 hPa | 0 mm | - | 320 W/m² | - |
| 1787502434 | 25.56° C | 65% | 1019.2 hPa | 0 mm | - | 316 W/m² | - |
| 1787502132 | 25.56° C | 66% | 1019.1 hPa | 0 mm | - | 344 W/m² | - |
| 1787501829 | 25° C | 67% | 1019.2 hPa | 0 mm | - | 320 W/m² | - |
| 1787501525 | 25° C | 68% | 1019.5 hPa | 0 mm | - | 282 W/m² | - |
| 1787501221 | 25° C | 68% | 1019.8 hPa | 0 mm | - | 270 W/m² | - |
| 1787500917 | 24.44° C | 68% | 1019.6 hPa | 0 mm | - | 256 W/m² | - |
| 1787500613 | 24.44° C | 68% | 1019.7 hPa | 0 mm | - | 243 W/m² | - |
* Rain latest hour (hover to see other rain measurements)
** Current wind speed in m/s (hover to see current wind gust speed)